QPF
0.07 0.07 0.06 0.06 0.06 0.05 0.05 0.05 0.06 0.09 0.09 0.10 0.11 0.10 0.09 0.09 0.08 0.07 0.06 0.07 0.08 0.06 0.05 0.03 0.03 0.03 0.03 0.03 0.03 0.02 0.01 0.01 0.01 0.01 0.01 0.01 0.01 0.01 0.00 0.00 0.00 0.00 0.00
0.07 0.07 0.06 0.05 0.05 0.04 0.04 0.06 0.09 0.11 0.12 0.11 0.10 0.10 0.09 0.09 0.09 0.08 0.09 0.10 0.09 0.06 0.05 0.05 0.05 0.04 0.03 0.03 0.02 0.02 0.01 0.01 0.01 0.01 0.01 0.01 0.01 0.01 0.01 0.00 0.00 0.00 0.00
0.06 0.07 0.07 0.05 0.03 0.03 0.05 0.06 0.08 0.11 0.13 0.12 0.09 0.08 0.08 0.08 0.09 0.11 0.11 0.09 0.07 0.07 0.06 0.05 0.05 0.05 0.05 0.04 0.03 0.03 0.02 0.02 0.02 0.02 0.01 0.01 0.01 0.00 0.01 0.01 0.01 0.01 0.01
0.04 0.04 0.04 0.04 0.04 0.08 0.11 0.08 0.08 0.12 0.15 0.15 0.12 0.10 0.10 0.10 0.11 0.14 0.14 0.10 0.08 0.08 0.06 0.04 0.03 0.04 0.04 0.05 0.06 0.06 0.05 0.04 0.03 0.03 0.02 0.02 0.01 0.01 0.01 0.00 0.00 0.00 0.01
0.02 0.02 0.03 0.03 0.03 0.06 0.08 0.08 0.09 0.13 0.17 0.22 0.20 0.16 0.14 0.14 0.14 0.13 0.13 0.12 0.09 0.08 0.07 0.06 0.06 0.07 0.07 0.08 0.07 0.07 0.06 0.06 0.05 0.04 0.03 0.02 0.02 0.01 0.01 0.01 0.01 0.01 0.01
0.03 0.03 0.04 0.04 0.05 0.06 0.07 0.08 0.08 0.09 0.11 0.14 0.16 0.13 0.12 0.13 0.17 0.17 0.16 0.14 0.11 0.10 0.09 0.08 0.07 0.07 0.06 0.06 0.05 0.04 0.04 0.03 0.03 0.02 0.02 0.02 0.01 0.01 0.01 0.01 0.01 0.01 0.01
0.04 0.04 0.05 0.06 0.08 0.09 0.09 0.09 0.08 0.08 0.09 0.09 0.11 0.14 0.15 0.17 0.19 0.19 0.19 0.16 0.14 0.13 0.11 0.10 0.08 0.07 0.07 0.06 0.05 0.04 0.04 0.05 0.05 0.04 0.03 0.03 0.03 0.02 0.02 0.02 0.02 0.02 0.03
0.07 0.08 0.09 0.11 0.11 0.11 0.11 0.11 0.13 0.12 0.12 0.12 0.13 0.15 0.17 0.20 0.22 0.20 0.20 0.17 0.16 0.14 0.13 0.12 0.11 0.10 0.09 0.09 0.07 0.06 0.05 0.05 0.07 0.07 0.06 0.07 0.07 0.06 0.05 0.05 0.05 0.05 0.05
0.09 0.11 0.12 0.13 0.12 0.12 0.12 0.13 0.12 0.12 0.12 0.13 0.14 0.15 0.15 0.17 0.21 0.19 0.18 0.14 0.12 0.11 0.10 0.10 0.10 0.10 0.10 0.10 0.09 0.07 0.06 0.06 0.07 0.07 0.07 0.06 0.06 0.06 0.05 0.05 0.05 0.04 0.04
0.11 0.13 0.13 0.13 0.12 0.13 0.14 0.15 0.15 0.14 0.13 0.13 0.14 0.14 0.13 0.12 0.13 0.13 0.13 0.12 0.10 0.08 0.07 0.06 0.06 0.06 0.07 0.08 0.07 0.06 0.06 0.06 0.06 0.04 0.03 0.03 0.03 0.04 0.05 0.03 0.03 0.03 0.02
0.10 0.13 0.14 0.11 0.10 0.12 0.14 0.17 0.18 0.18 0.17 0.16 0.16 0.14 0.13 0.13 0.13 0.11 0.11 0.08 0.06 0.05 0.05 0.05 0.05 0.06 0.07 0.08 0.08 0.07 0.07 0.06 0.05 0.04 0.03 0.02 0.02 0.02 0.02 0.02 0.02 0.02 0.02
0.07 0.11 0.12 0.10 0.09 0.09 0.11 0.13 0.13 0.14 0.14 0.13 0.13 0.12 0.12 0.12 0.12 0.10 0.09 0.07 0.06 0.06 0.06 0.05 0.05 0.07 0.08 0.09 0.09 0.08 0.07 0.06 0.04 0.03 0.02 0.02 0.02 0.02 0.02 0.02 0.02 0.02 0.02
0.06 0.08 0.10 0.13 0.13 0.11 0.11 0.12 0.13 0.14 0.15 0.14 0.13 0.12 0.12 0.13 0.13 0.12 0.09 0.07 0.05 0.03 0.04 0.05 0.06 0.06 0.06 0.06 0.06 0.06 0.04 0.03 0.03 0.03 0.03 0.03 0.03 0.02 0.02 0.02 0.02 0.02 0.02
0.06 0.06 0.07 0.07 0.08 0.08 0.09 0.09 0.09 0.10 0.11 0.11 0.10 0.09 0.09 0.09 0.10 0.10 0.07 0.06 0.05 0.03 0.03 0.03 0.04 0.04 0.04 0.05 0.05 0.05 0.04 0.04 0.03 0.03 0.03 0.03 0.03 0.03 0.03 0.02 0.02 0.02 0.02
0.06 0.05 0.05 0.05 0.05 0.04 0.05 0.05 0.06 0.06 0.07 0.07 0.07 0.06 0.05 0.05 0.06 0.07 0.07 0.06 0.05 0.04 0.03 0.03 0.03 0.03 0.03 0.03 0.04 0.05 0.06 0.06 0.07 0.06 0.05 0.05 0.05 0.05 0.04 0.04 0.04 0.04 0.04
0.05 0.05 0.04 0.04 0.06 0.06 0.05 0.05 0.04 0.05 0.05 0.05 0.04 0.05 0.05 0.06 0.07 0.07 0.06 0.05 0.05 0.04 0.04 0.03 0.04 0.04 0.04 0.05 0.06 0.07 0.07 0.08 0.08 0.08 0.07 0.06 0.05 0.05 0.04 0.04 0.04 0.04 0.04
0.07 0.05 0.04 0.04 0.04 0.05 0.06 0.06 0.06 0.05 0.04 0.03 0.03 0.04 0.04 0.05 0.05 0.04 0.03 0.03 0.03 0.04 0.05 0.04 0.04 0.03 0.04 0.04 0.04 0.05 0.05 0.05 0.05 0.04 0.03 0.03 0.03 0.03 0.03 0.03 0.03 0.03 0.03
0.07 0.05 0.03 0.02 0.02 0.02 0.02 0.03 0.04 0.05 0.05 0.04 0.03 0.03 0.03 0.03 0.02 0.01 0.01 0.02 0.03 0.03 0.03 0.02 0.01 0.00 0.01 0.01 0.02 0.02 0.02 0.02 0.02 0.02 0.02 0.03 0.03 0.03 0.03 0.03 0.03 0.03 0.03
0.02 0.01 0.01 0.01 0.01 0.02 0.02 0.02 0.02 0.02 0.02 0.02 0.02 0.02 0.01 0.01 0.01 0.00 0.00 0.00 0.01 0.01 0.01 0.01 0.00 0.00 0.00 0.00 0.00 0.01 0.01 0.01 0.01 0.01 0.01 0.01 0.02 0.02 0.02 0.03 0.03 0.04 0.04
0.01 0.01 0.01 0.01 0.02 0.02 0.02 0.02 0.01 0.01 0.01 0.01 0.01 0.01 0.00 0.00 0.00 0.00 0.00 0.00 0.00 0.00 0.00 0.00 0.00 0.00 0.00 0.00 0.00 0.00 0.00 0.00 0.00 0.00 0.00 0.00 0.00 0.00 0.01 0.01 0.02 0.02 0.03
0.01 0.01 0.01 0.01 0.01 0.02 0.02 0.01 0.01 0.01 0.00 0.00 0.00 0.00 0.00 0.00 0.00 0.00 0.00 0.00 0.00 0.00 0.00 0.00 0.00 0.00 0.00 0.00 0.00 0.00 0.00 0.00 0.00 0.00 0.01 0.01 0.01 0.01 0.01 0.01 0.02 0.02 0.03
0.01 0.00 0.00 0.00 0.00 0.00 0.00 0.00 0.00 0.00 0.00 0.00 0.00 0.00 0.00 0.00 0.00 0.00 0.00 0.00 0.00 0.00 0.00 0.00 0.00 0.00 0.00 0.00 0.00 0.00 0.00 0.00 0.00 0.01 0.02 0.02 0.01 0.01 0.01 0.01 0.01 0.01 0.01
0.00 0.00 0.00 0.00 0.00 0.00 0.00 0.00 0.00 0.00 0.00 0.00 0.00 0.00 0.00 0.00 0.00 0.00 0.00 0.00 0.00 0.00 0.00 0.00 0.00 0.00 0.00 0.00 0.00 0.00 0.00 0.00 0.00 0.01 0.02 0.02 0.01 0.01 0.01 0.01 0.01 0.01 0.01
0.00 0.00 0.00 0.00 0.00 0.00 0.00 0.00 0.00 0.00 0.00 0.00 0.00 0.00 0.00 0.00 0.00 0.00 0.00 0.00 0.00 0.00 0.00 0.00 0.00 0.00 0.00 0.00 0.00 0.00 0.00 0.00 0.01 0.01 0.02 0.02 0.02 0.02 0.02 0.02 0.02 0.01 0.01
0.00 0.00 0.00 0.00 0.00 0.00 0.00 0.00 0.00 0.00 0.00 0.00 0.00 0.00 0.00 0.00 0.00 0.00 0.00 0.00 0.01 0.01 0.01 0.00 0.00 0.00 0.00 0.00 0.01 0.01 0.01 0.01 0.01 0.01 0.01 0.02 0.02 0.02 0.02 0.01 0.01 0.01 0.01
0.00 0.00 0.00 0.00 0.00 0.00 0.00 0.00 0.00 0.00 0.00 0.00 0.00 0.00 0.00 0.00 0.00 0.00 0.00 0.01 0.01 0.01 0.00 0.00 0.00 0.00 0.00 0.01 0.01 0.01 0.01 0.01 0.01 0.01 0.01 0.01 0.01 0.02 0.02 0.01 0.01 0.01 0.01
MSLP
1007.41 1007.58 1007.81 1008.09 1008.41 1008.77 1009.15 1009.56 1010.01 1010.49 1011.00 1011.54 1012.10 1012.67 1013.24 1013.80 1014.34 1014.87 1015.38 1015.87 1016.34 1016.79 1017.20 1017.58 1017.92 1018.21 1018.44 1018.62 1018.74 1018.81 1018.83 1018.80 1018.72 1018.59 1018.42 1018.20 1017.95 1017.68 1017.42 1017.20 1017.02 1016.93 1016.92
1007.43 1007.53 1007.67 1007.86 1008.11 1008.40 1008.74 1009.12 1009.56 1010.05 1010.58 1011.14 1011.73 1012.32 1012.92 1013.50 1014.07 1014.61 1015.13 1015.61 1016.07 1016.49 1016.87 1017.21 1017.51 1017.76 1017.96 1018.12 1018.25 1018.33 1018.38 1018.40 1018.37 1018.29 1018.15 1017.97 1017.73 1017.46 1017.18 1016.92 1016.69 1016.53 1016.44
1007.62 1007.66 1007.73 1007.84 1008.00 1008.21 1008.49 1008.84 1009.25 1009.73 1010.26 1010.84 1011.45 1012.08 1012.70 1013.31 1013.89 1014.44 1014.96 1015.44 1015.87 1016.27 1016.62 1016.92 1017.17 1017.38 1017.55 1017.69 1017.80 1017.89 1017.95 1017.98 1017.98 1017.93 1017.83 1017.67 1017.46 1017.20 1016.92 1016.64 1016.38 1016.16 1016.01
1007.93 1007.94 1007.96 1007.99 1008.06 1008.20 1008.40 1008.69 1009.06 1009.52 1010.05 1010.64 1011.27 1011.92 1012.56 1013.18 1013.78 1014.33 1014.85 1015.31 1015.73 1016.10 1016.41 1016.68 1016.90 1017.07 1017.21 1017.31 1017.40 1017.47 1017.52 1017.56 1017.56 1017.53 1017.45 1017.31 1017.13 1016.89 1016.63 1016.35 1016.08 1015.84 1015.65
1008.32 1008.32 1008.29 1008.26 1008.26 1008.31 1008.44 1008.66 1008.99 1009.42 1009.94 1010.54 1011.17 1011.83 1012.48 1013.12 1013.71 1014.26 1014.76 1015.21 1015.61 1015.95 1016.24 1016.48 1016.67 1016.81 1016.92 1017.00 1017.05 1017.09 1017.12 1017.13 1017.12 1017.08 1017.01 1016.89 1016.73 1016.53 1016.30 1016.05 1015.80 1015.57 1015.37
1008.74 1008.74 1008.69 1008.62 1008.55 1008.53 1008.59 1008.75 1009.03 1009.43 1009.94 1010.52 1011.16 1011.81 1012.46 1013.09 1013.67 1014.21 1014.69 1015.12 1015.49 1015.81 1016.08 1016.30 1016.48 1016.60 1016.69 1016.74 1016.76 1016.76 1016.75 1016.72 1016.68 1016.63 1016.55 1016.45 1016.32 1016.16 1015.98 1015.77 1015.56 1015.36 1015.16
1009.15 1009.18 1009.12 1009.01 1008.90 1008.83 1008.83 1008.95 1009.20 1009.57 1010.05 1010.62 1011.24 1011.89 1012.52 1013.12 1013.68 1014.18 1014.63 1015.03 1015.38 1015.69 1015.95 1016.16 1016.33 1016.45 1016.52 1016.55 1016.54 1016.50 1016.45 1016.38 1016.30 1016.22 1016.14 1016.04 1015.94 1015.82 1015.69 1015.54 1015.38 1015.21 1015.03
1009.54 1009.59 1009.55 1009.44 1009.31 1009.21 1009.19 1009.29 1009.51 1009.86 1010.33 1010.87 1011.47 1012.09 1012.68 1013.24 1013.75 1014.21 1014.62 1014.98 1015.31 1015.60 1015.86 1016.08 1016.25 1016.37 1016.44 1016.46 1016.43 1016.36 1016.27 1016.16 1016.04 1015.93 1015.83 1015.73 1015.65 1015.56 1015.48 1015.38 1015.27 1015.14 1014.99
1009.90 1009.99 1009.97 1009.88 1009.77 1009.68 1009.67 1009.77 1009.99 1010.34 1010.79 1011.32 1011.88 1012.45 1012.99 1013.50 1013.94 1014.34 1014.70 1015.03 1015.32 1015.60 1015.86 1016.08 1016.27 1016.40 1016.48 1016.50 1016.45 1016.36 1016.23 1016.09 1015.94 1015.79 1015.67 1015.57 1015.49 1015.43 1015.37 1015.31 1015.24 1015.14 1015.01
1010.25 1010.38 1010.41 1010.36 1010.29 1010.25 1010.28 1010.41 1010.66 1011.01 1011.45 1011.96 1012.48 1013.00 1013.48 1013.91 1014.29 1014.62 1014.92 1015.19 1015.46 1015.72 1015.98 1016.21 1016.41 1016.56 1016.66 1016.68 1016.63 1016.52 1016.37 1016.19 1016.01 1015.83 1015.68 1015.57 1015.48 1015.42 1015.38 1015.34 1015.29 1015.20 1015.07
1010.59 1010.78 1010.86 1010.88 1010.89 1010.92 1011.02 1011.20 1011.49 1011.87 1012.31 1012.79 1013.27 1013.72 1014.13 1014.49 1014.79 1015.05 1015.29 1015.52 1015.75 1016.00 1016.24 1016.48 1016.70 1016.86 1016.97 1017.00 1016.95 1016.84 1016.67 1016.46 1016.25 1016.05 1015.87 1015.72 1015.62 1015.55 1015.49 1015.45 1015.39 1015.29 1015.16
1010.96 1011.19 1011.34 1011.45 1011.55 1011.67 1011.86 1012.12 1012.45 1012.86 1013.30 1013.76 1014.20 1014.59 1014.93 1015.20 1015.43 1015.62 1015.80 1015.99 1016.19 1016.42 1016.66 1016.90 1017.12 1017.29 1017.41 1017.44 1017.40 1017.27 1017.09 1016.87 1016.63 1016.40 1016.19 1016.02 1015.88 1015.77 1015.69 1015.61 1015.52 1015.40 1015.24
1011.37 1011.64 1011.87 1012.06 1012.26 1012.49 1012.76 1013.10 1013.49 1013.92 1014.37 1014.80 1015.20 1015.53 1015.80 1016.01 1016.17 1016.31 1016.44 1016.59 1016.76 1016.97 1017.20 1017.43 1017.65 1017.83 1017.94 1017.98 1017.93 1017.80 1017.61 1017.37 1017.12 1016.86 1016.61 1016.40 1016.22 1016.06 1015.93 1015.80 1015.66 1015.50 1015.31
1011.84 1012.16 1012.44 1012.72 1013.01 1013.33 1013.69 1014.10 1014.53 1014.99 1015.43 1015.84 1016.19 1016.48 1016.70 1016.85 1016.97 1017.06 1017.16 1017.28 1017.43 1017.62 1017.83 1018.06 1018.26 1018.43 1018.54 1018.57 1018.51 1018.38 1018.19 1017.94 1017.66 1017.38 1017.11 1016.85 1016.62 1016.41 1016.21 1016.01 1015.81 1015.59 1015.35
1012.40 1012.74 1013.07 1013.41 1013.78 1014.18 1014.60 1015.06 1015.53 1015.99 1016.43 1016.81 1017.13 1017.38 1017.56 1017.68 1017.76 1017.83 1017.91 1018.01 1018.15 1018.33 1018.53 1018.74 1018.93 1019.08 1019.18 1019.19 1019.13 1019.00 1018.79 1018.54 1018.25 1017.95 1017.65 1017.35 1017.06 1016.79 1016.52 1016.25 1015.97 1015.68 1015.38
1013.06 1013.41 1013.77 1014.16 1014.57 1015.02 1015.49 1015.97 1016.45 1016.91 1017.33 1017.69 1017.98 1018.20 1018.36 1018.46 1018.54 1018.60 1018.68 1018.78 1018.91 1019.08 1019.27 1019.46 1019.63 1019.76 1019.84 1019.84 1019.78 1019.63 1019.43 1019.17 1018.88 1018.56 1018.23 1017.89 1017.55 1017.21 1016.86 1016.51 1016.15 1015.78 1015.40
1013.84 1014.18 1014.55 1014.96 1015.40 1015.86 1016.35 1016.84 1017.32 1017.76 1018.16 1018.50 1018.77 1018.97 1019.11 1019.22 1019.30 1019.37 1019.45 1019.56 1019.70 1019.86 1020.03 1020.20 1020.35 1020.46 1020.52 1020.51 1020.44 1020.29 1020.09 1019.83 1019.53 1019.20 1018.84 1018.47 1018.08 1017.67 1017.24 1016.81 1016.36 1015.90 1015.44
1014.72 1015.05 1015.42 1015.83 1016.27 1016.74 1017.22 1017.70 1018.16 1018.58 1018.96 1019.27 1019.53 1019.72 1019.86 1019.97 1020.07 1020.15 1020.25 1020.36 1020.50 1020.65 1020.81 1020.96 1021.09 1021.18 1021.22 1021.20 1021.12 1020.97 1020.77 1020.51 1020.21 1019.86 1019.48 1019.07 1018.63 1018.15 1017.65 1017.13 1016.59 1016.04 1015.49
1015.71 1016.02 1016.37 1016.77 1017.21 1017.67 1018.13 1018.59 1019.02 1019.42 1019.77 1020.07 1020.31 1020.50 1020.65 1020.77 1020.87 1020.97 1021.08 1021.19 1021.32 1021.46 1021.60 1021.73 1021.83 1021.90 1021.92 1021.88 1021.79 1021.64 1021.44 1021.18 1020.87 1020.51 1020.11 1019.66 1019.17 1018.63 1018.06 1017.46 1016.83 1016.19 1015.55
1016.76 1017.06 1017.41 1017.80 1018.22 1018.66 1019.10 1019.54 1019.95 1020.32 1020.65 1020.94 1021.17 1021.35 1021.50 1021.63 1021.73 1021.83 1021.93 1022.04 1022.15 1022.27 1022.38 1022.47 1022.54 1022.58 1022.58 1022.53 1022.43 1022.27 1022.06 1021.79 1021.47 1021.10 1020.67 1020.18 1019.64 1019.05 1018.42 1017.75 1017.05 1016.33 1015.61
1017.86 1018.16 1018.50 1018.88 1019.29 1019.72 1020.14 1020.56 1020.95 1021.30 1021.61 1021.88 1022.10 1022.28 1022.42 1022.54 1022.64 1022.72 1022.80 1022.88 1022.96 1023.04 1023.11 1023.16 1023.19 1023.20 1023.17 1023.10 1022.98 1022.81 1022.58 1022.30 1021.96 1021.56 1021.10 1020.58 1020.00 1019.36 1018.68 1017.96 1017.21 1016.44 1015.66
1018.97 1019.27 1019.62 1020.00 1020.40 1020.82 1021.23 1021.63 1022.00 1022.34 1022.63 1022.89 1023.09 1023.26 1023.39 1023.48 1023.56 1023.61 1023.65 1023.69 1023.72 1023.74 1023.76 1023.76 1023.75 1023.72 1023.65 1023.55 1023.40 1023.21 1022.96 1022.65 1022.29 1021.86 1021.36 1020.81 1020.19 1019.53 1018.82 1018.07 1017.30 1016.51 1015.71
1020.06 1020.37 1020.72 1021.10 1021.51 1021.91 1022.31 1022.70 1023.06 1023.38 1023.66 1023.90 1024.09 1024.23 1024.33 1024.40 1024.44 1024.45 1024.44 1024.42 1024.39 1024.35 1024.31 1024.26 1024.19 1024.11 1024.00 1023.86 1023.68 1023.46 1023.18 1022.84 1022.43 1021.97 1021.44 1020.85 1020.21 1019.53 1018.81 1018.07 1017.31 1016.54 1015.76
1021.10 1021.43 1021.79 1022.17 1022.56 1022.96 1023.35 1023.72 1024.07 1024.37 1024.64 1024.85 1025.02 1025.14 1025.21 1025.24 1025.24 1025.20 1025.14 1025.06 1024.96 1024.86 1024.76 1024.65 1024.53 1024.40 1024.25 1024.07 1023.85 1023.58 1023.26 1022.88 1022.43 1021.93 1021.37 1020.75 1020.10 1019.42 1018.71 1018.00 1017.28 1016.56 1015.84
1022.09 1022.42 1022.78 1023.16 1023.54 1023.93 1024.30 1024.65 1024.97 1025.25 1025.50 1025.69 1025.84 1025.93 1025.98 1025.97 1025.93 1025.84 1025.73 1025.60 1025.45 1025.29 1025.13 1024.97 1024.80 1024.62 1024.42 1024.20 1023.94 1023.63 1023.26 1022.84 1022.35 1021.81 1021.22 1020.59 1019.93 1019.25 1018.58 1017.91 1017.25 1016.60 1015.97
1023.02 1023.35 1023.70 1024.06 1024.42 1024.77 1025.11 1025.43 1025.73 1025.99 1026.21 1026.39 1026.51 1026.59 1026.61 1026.58 1026.50 1026.39 1026.24 1026.06 1025.87 1025.67 1025.47 1025.26 1025.05 1024.83 1024.60 1024.33 1024.03 1023.68 1023.27 1022.81 1022.29 1021.71 1021.09 1020.44 1019.78 1019.12 1018.48 1017.86 1017.27 1016.71 1016.17
Thickness
5739 5737 5735 5734 5733 5731 5730 5730 5730 5730 5729 5729 5729 5728 5726 5725 5725 5723 5723 5721 5720 5720 5719 5718 5718 5717 5716 5715 5714 5713 5711 5709 5707 5710 5710 5712 5712 5713 5713 5712 5711 5710 5709
5737 5735 5733 5732 5731 5729 5729 5729 5729 5728 5728 5728 5727 5726 5725 5724 5723 5722 5720 5720 5719 5717 5716 5715 5715 5714 5713 5712 5711 5709 5708 5707 5705 5704 5705 5706 5707 5708 5708 5707 5706 5706 5704
5736 5733 5731 5729 5728 5727 5727 5728 5727 5726 5726 5725 5724 5722 5722 5722 5721 5720 5719 5718 5717 5715 5714 5712 5711 5710 5708 5707 5706 5705 5705 5704 5702 5700 5700 5700 5701 5701 5701 5700 5700 5699 5699
5734 5731 5729 5728 5727 5727 5726 5726 5725 5725 5724 5722 5721 5720 5720 5719 5718 5717 5716 5714 5713 5711 5710 5709 5708 5707 5705 5704 5703 5701 5700 5699 5697 5695 5694 5694 5694 5694 5693 5692 5692 5692 5691
5731 5729 5727 5727 5726 5725 5724 5723 5722 5721 5720 5719 5717 5717 5716 5716 5715 5714 5713 5710 5708 5707 5705 5704 5704 5702 5701 5700 5698 5696 5695 5693 5691 5689 5688 5687 5686 5685 5685 5685 5683 5683 5682
5728 5726 5726 5724 5723 5721 5720 5719 5718 5716 5715 5714 5713 5712 5711 5711 5711 5710 5708 5706 5704 5702 5700 5699 5698 5696 5695 5694 5693 5691 5690 5687 5685 5683 5681 5680 5679 5678 5677 5675 5674 5672 5672
5725 5724 5722 5721 5719 5717 5716 5714 5713 5711 5710 5709 5708 5707 5706 5705 5705 5705 5703 5701 5698 5696 5694 5692 5691 5690 5688 5687 5686 5684 5682 5681 5680 5677 5675 5673 5672 5670 5668 5666 5664 5663 5663
5721 5720 5719 5717 5714 5712 5710 5709 5707 5706 5704 5702 5701 5700 5699 5698 5698 5698 5696 5694 5692 5690 5688 5686 5684 5682 5681 5680 5678 5676 5674 5673 5671 5669 5668 5666 5664 5662 5659 5657 5655 5653 5652
5716 5715 5714 5713 5710 5707 5705 5703 5702 5700 5697 5695 5694 5692 5691 5689 5689 5689 5688 5686 5684 5682 5680 5677 5676 5675 5673 5671 5669 5667 5665 5663 5661 5659 5657 5655 5653 5651 5648 5645 5643 5641 5640
5709 5708 5708 5706 5704 5702 5699 5697 5695 5693 5691 5688 5685 5683 5682 5680 5680 5680 5679 5678 5675 5672 5670 5668 5667 5665 5664 5661 5659 5657 5654 5652 5649 5648 5646 5643 5640 5638 5636 5632 5630 5627 5626
5703 5702 5700 5699 5697 5695 5692 5690 5688 5685 5682 5680 5677 5673 5672 5671 5671 5671 5670 5668 5666 5663 5660 5657 5656 5655 5654 5651 5649 5646 5643 5640 5637 5635 5633 5630 5627 5625 5622 5619 5616 5614 5611
5694 5692 5690 5689 5688 5686 5684 5681 5679 5676 5673 5669 5667 5663 5661 5660 5660 5659 5658 5657 5656 5653 5649 5647 5644 5643 5641 5639 5636 5634 5631 5628 5625 5623 5620 5616 5613 5610 5607 5605 5602 5599 5597
5684 5682 5680 5679 5677 5675 5674 5671 5668 5666 5663 5659 5656 5654 5651 5649 5649 5648 5647 5646 5644 5641 5638 5635 5633 5631 5628 5625 5622 5619 5617 5614 5611 5608 5604 5600 5597 5594 5592 5590 5587 5584 5582
5673 5671 5669 5667 5664 5663 5662 5660 5657 5654 5652 5650 5646 5643 5640 5639 5637 5636 5635 5633 5631 5628 5625 5622 5620 5617 5614 5611 5608 5604 5601 5598 5594 5590 5587 5583 5580 5578 5576 5573 5571 5568 5566
5662 5660 5657 5655 5653 5650 5647 5643 5643 5640 5639 5638 5635 5633 5631 5627 5624 5624 5624 5621 5618 5616 5613 5610 5607 5603 5600 5596 5592 5588 5585 5582 5578 5574 5570 5567 5565 5562 5559 5556 5554 5552 5550
5652 5649 5647 5644 5641 5639 5636 5631 5627 5627 5625 5624 5624 5622 5618 5615 5613 5612 5610 5608 5605 5603 5601 5596 5591 5587 5584 5580 5577 5573 5569 5566 5562 5559 5556 5552 5549 5547 5544 5541 5538 5536 5535
5642 5639 5637 5635 5632 5629 5626 5624 5619 5614 5612 5611 5610 5608 5606 5603 5600 5598 5596 5594 5591 5589 5586 5580 5576 5571 5568 5565 5561 5557 5554 5550 5547 5544 5541 5538 5535 5532 5530 5528 5525 5523 5522
5633 5631 5629 5626 5623 5620 5616 5613 5611 5608 5604 5598 5595 5593 5592 5590 5588 5585 5583 5582 5577 5573 5569 5565 5560 5556 5553 5549 5546 5542 5539 5536 5533 5530 5527 5524 5521 5519 5517 5515 5513 5511 5509
5623 5620 5618 5616 5613 5609 5606 5603 5600 5596 5592 5588 5584 5581 5579 5577 5574 5571 5569 5566 5562 5557 5552 5548 5544 5541 5538 5534 5531 5527 5524 5522 5519 5516 5514 5511 5508 5507 5505 5503 5501 5499 5498
5611 5610 5608 5605 5602 5598 5595 5592 5588 5584 5580 5576 5573 5569 5566 5565 5562 5557 5554 5550 5546 5541 5537 5534 5530 5526 5523 5519 5516 5513 5511 5508 5506 5503 5501 5499 5496 5494 5493 5492 5491 5490 5489
5601 5599 5597 5594 5590 5587 5583 5580 5576 5572 5567 5563 5559 5555 5553 5551 5547 5542 5539 5535 5531 5527 5523 5520 5516 5512 5509 5505 5502 5500 5498 5495 5493 5490 5488 5487 5485 5484 5482 5482 5481 5480 5479
5591 5588 5585 5582 5578 5574 5571 5567 5564 5559 5555 5551 5546 5542 5539 5537 5533 5529 5525 5521 5517 5513 5509 5506 5503 5499 5495 5492 5489 5487 5485 5483 5480 5478 5476 5475 5474 5473 5473 5472 5471 5471 5470
5580 5577 5573 5569 5565 5561 5558 5555 5551 5547 5542 5538 5534 5530 5527 5523 5519 5515 5511 5507 5503 5500 5496 5493 5490 5486 5483 5480 5477 5474 5472 5470 5468 5466 5465 5464 5464 5463 5462 5462 5462 5462 5462
5568 5565 5561 5557 5553 5550 5546 5542 5538 5534 5530 5526 5522 5518 5514 5509 5506 5502 5498 5494 5491 5487 5484 5481 5477 5474 5471 5469 5466 5463 5461 5459 5457 5456 5455 5454 5454 5454 5454 5455 5455 5455 5455
5556 5553 5549 5545 5542 5538 5534 5530 5526 5521 5517 5513 5509 5505 5501 5497 5493 5489 5486 5482 5479 5476 5472 5469 5466 5463 5461 5458 5456 5454 5452 5451 5450 5448 5447 5447 5447 5447 5447 5448 5449 5449 5449
5544 5541 5537 5533 5530 5526 5522 5518 5513 5509 5505 5501 5497 5492 5489 5485 5481 5478 5474 5471 5468 5465 5461 5459 5456 5453 5451 5449 5448 5446 5445 5445 5444 5443 5441 5441 5441 5441 5442 5442 5443 5443 5444